GW0381 Weather Reports


Display with metric or nautical units.
time (UTC)temp
F
wind
direction
speed
MPH
gust
MPH
rain 1hr
in
rain 24hr
in
rain mn
in
humidity
%
barometer
mb
20260507232415 46 49 0.0 2.0 0.00 0.14 0.00 91 1017.9
20260507232116 46 49 1.0 2.0 0.00 0.14 0.00 91 1018.0
20260507231817 46 49 1.0 2.0 0.00 0.14 0.00 91 1018.0
20260507231516 46 49 1.0 2.0 0.00 0.14 0.00 91 1018.0
20260507231216 46 49 0.0 2.0 0.00 0.14 0.00 91 1018.0
20260507230916 46 49 1.0 2.0 0.00 0.14 0.00 91 1018.0
20260507230616 46 49 0.0 1.0 0.00 0.14 0.00 91 1018.0
20260507230315 46 49 0.0 2.0 0.00 0.14 0.00 91 1018.0
20260507230016 46 49 0.0 1.0 0.00 0.14 0.00 91 1018.0
20260507225716 46 49 0.0 1.0 0.00 0.14 0.00 91 1018.0
20260507225415 46 49 1.0 1.0 0.00 0.14 0.00 91 1018.0
20260507225159 46 49 0.0 1.0 0.00 0.14 0.00 91 1018.0
20260507224816 46 49 0.0 2.0 0.00 0.14 0.00 91 1017.9
20260507224516 46 49 1.0 2.0 0.00 0.14 0.00 91 1017.9
20260507224215 46 49 1.0 1.0 0.00 0.14 0.00 91 1017.9
20260507223919 46 49 1.0 1.0 0.00 0.14 0.00 91 1017.9
20260507223616 46 49 0.0 1.0 0.01 0.14 0.00 91 1017.8
20260507223316 46 49 0.0 1.0 0.01 0.14 0.00 91 1017.8
20260507223016 46 0.0 0.0 0.01 0.14 0.00 90 1017.8
20260507222718 46 0.0 0.0 0.01 0.14 0.00 91 1017.8
20260507222415 46 49 0.0 1.0 0.01 0.14 0.00 91 1017.8
20260507222115 46 49 0.0 1.0 0.01 0.14 0.00 91 1017.7
20260507221816 46 49 0.0 1.0 0.01 0.14 0.00 91 1017.7
20260507221515 46 49 0.0 1.0 0.01 0.14 0.00 91 1017.7
20260507221255 46 49 0.0 1.0 0.01 0.14 0.00 90 1017.7
20260507220915 46 49 0.0 1.0 0.01 0.14 0.00 90 1017.7
20260507220618 46 49 0.0 1.0 0.01 0.14 0.00 90 1017.7
20260507220315 46 49 0.0 1.0 0.01 0.14 0.00 90 1017.7
20260507220015 46 49 0.0 1.0 0.01 0.14 0.00 90 1017.7
20260507215715 46 49 0.0 1.0 0.01 0.14 0.14 90 1017.7
20260507215416 46 49 0.0 1.0 0.01 0.14 0.14 90 1017.7
20260507215116 46 49 0.0 1.0 0.01 0.14 0.14 90 1017.7
20260507214815 46 0.0 0.0 0.01 0.14 0.14 90 1017.6
20260507214516 46 0.0 0.0 0.02 0.14 0.14 90 1017.6
20260507214216 46 49 0.0 1.0 0.02 0.14 0.14 90 1017.6
20260507213955 46 0.0 0.0 0.02 0.14 0.14 90 1017.6
20260507213615 46 0.0 0.0 0.01 0.13 0.13 90 1017.6
20260507213316 46 0.0 0.0 0.01 0.13 0.13 90 1017.6
20260507213016 46 0.0 0.0 0.01 0.13 0.13 90 1017.5
20260507212716 46 49 0.0 1.0 0.01 0.13 0.13 90 1017.5
20260507212415 46 0.0 0.0 0.01 0.13 0.13 90 1017.6
20260507212119 46 0.0 0.0 0.01 0.13 0.13 90 1017.4
20260507211816 46 49 0.0 1.0 0.01 0.13 0.13 89 1017.4
20260507211516 46 49 0.0 1.0 0.01 0.13 0.13 89 1017.4
20260507211256 46 49 0.0 1.0 0.01 0.13 0.13 89 1017.4
20260507210919 46 0.0 0.0 0.01 0.13 0.13 89 1017.4
20260507210616 46 49 1.0 2.0 0.01 0.13 0.13 89 1017.4
20260507210316 46 49 1.0 2.0 0.01 0.13 0.13 89 1017.4
20260507210016 46 49 1.0 2.0 0.01 0.13 0.13 89 1017.4
20260507205716 46 49 1.0 3.0 0.01 0.13 0.13 89 1017.4
20260507205416 46 49 1.0 2.0 0.01 0.13 0.13 89 1017.3
20260507205116 46 49 1.0 4.0 0.01 0.13 0.13 89 1017.3
20260507204816 46 49 1.0 3.0 0.01 0.13 0.13 89 1017.2
20260507204516 46 49 2.0 4.0 0.00 0.13 0.13 89 1017.2
20260507204216 46 49 2.0 2.0 0.00 0.13 0.13 89 1017.2
20260507203916 46 49 2.0 3.0 0.01 0.13 0.13 89 1017.2
20260507203616 46 49 2.0 4.0 0.01 0.13 0.13 89 1017.1
20260507203315 46 49 2.0 4.0 0.01 0.13 0.13 89 1017.1
20260507203016 46 49 2.0 3.0 0.01 0.13 0.13 89 1017.1
20260507202716 46 54 2.0 4.0 0.01 0.13 0.13 89 1017.0
20260507202416 46 45 1.0 3.0 0.01 0.13 0.13 89 1017.0
20260507202156 46 46 1.0 3.0 0.01 0.13 0.13 89 1017.0
20260507201816 46 40 2.0 4.0 0.01 0.13 0.13 89 1017.0
20260507201556 46 36 2.0 4.0 0.01 0.13 0.13 89 1016.9
20260507201216 46 37 2.0 3.0 0.01 0.13 0.13 89 1017.0
20260507200915 46 37 1.0 2.0 0.01 0.13 0.13 89 1017.0
20260507200736 46 37 1.0 2.0 0.01 0.13 0.13 89 1016.9
20260507200316 46 37 1.0 4.0 0.01 0.13 0.13 89 1016.9
20260507200016 46 42 2.0 4.0 0.01 0.13 0.13 89 1016.9
20260507195756 46 47 3.0 7.0 0.01 0.13 0.13 89 1016.9
20260507195419 46 39 3.0 10.0 0.01 0.13 0.13 89 1016.9
20260507195116 46 39 1.0 4.0 0.01 0.13 0.13 89 1016.8
20260507194816 46 39 2.0 4.0 0.01 0.13 0.13 89 1016.8
20260507194516 46 39 1.0 3.0 0.01 0.13 0.13 89 1016.7
20260507194215 46 39 1.0 3.0 0.01 0.13 0.13 89 1016.8
20260507193915 46 39 1.0 2.0 0.00 0.12 0.12 89 1016.7
20260507193616 46 39 2.0 3.0 0.00 0.12 0.12 89 1016.7
20260507193316 46 39 1.0 3.0 0.00 0.12 0.12 89 1016.7
20260507193016 46 42 1.0 3.0 0.00 0.12 0.12 89 1016.6
20260507192758 46 40 2.0 3.0 0.00 0.12 0.12 89 1016.6
20260507192456 46 27 1.0 3.0 0.00 0.12 0.12 89 1016.6
20260507192116 46 14 2.0 5.0 0.00 0.12 0.12 89 1016.6
20260507191819 46 354 2.0 3.0 0.00 0.12 0.12 89 1016.6
20260507191515 46 26 1.0 3.0 0.00 0.12 0.12 89 1016.5
20260507191216 46 28 1.0 3.0 0.00 0.12 0.12 89 1016.5
20260507190956 46 17 2.0 4.0 0.00 0.12 0.12 89 1016.4
20260507190616 47 9 2.0 4.0 0.00 0.12 0.12 89 1016.4
20260507190316 47 13 1.0 4.0 0.00 0.12 0.12 89 1016.3
20260507190136 47 13 1.0 4.0 0.00 0.12 0.12 89 1016.3
20260507185716 47 13 1.0 2.0 0.00 0.12 0.12 88 1016.3
20260507185416 47 13 2.0 4.0 0.00 0.12 0.12 88 1016.2
20260507185116 47 12 2.0 5.0 0.00 0.12 0.12 88 1016.2
20260507184816 47 12 2.0 4.0 0.00 0.12 0.12 88 1016.2
20260507184516 47 14 2.0 5.0 0.00 0.12 0.12 88 1016.2
20260507184216 47 24 1.0 5.0 0.00 0.12 0.12 88 1016.1
20260507183916 47 21 1.0 2.0 0.00 0.12 0.12 88 1016.1
20260507183616 47 21 1.0 4.0 0.00 0.12 0.12 88 1016.1
20260507183319 47 21 2.0 4.0 0.00 0.12 0.12 88 1016.1
20260507183016 47 21 2.0 5.0 0.00 0.12 0.12 88 1016.0
20260507182716 47 24 2.0 5.0 0.00 0.12 0.12 88 1016.0
20260507182416 47 25 1.0 4.0 0.00 0.12 0.12 88 1016.0
20260507182116 47 29 2.0 3.0 0.00 0.12 0.12 87 1015.9
20260507181816 47 22 2.0 4.0 0.00 0.12 0.12 87 1015.9
20260507181516 47 20 2.0 5.0 0.00 0.12 0.12 87 1015.9
20260507181216 47 38 2.0 6.0 0.00 0.12 0.12 87 1015.8
20260507180916 47 18 2.0 5.0 0.00 0.12 0.12 87 1015.8
20260507180616 47 26 1.0 4.0 0.00 0.12 0.12 87 1015.8
20260507180356 47 34 2.0 4.0 0.00 0.12 0.12 87 1015.8
20260507180016 47 34 2.0 4.0 0.00 0.12 0.12 87 1015.8
20260507175716 47 26 2.0 4.0 0.00 0.12 0.12 87 1015.8
20260507175416 47 36 2.0 5.0 0.00 0.12 0.12 87 1015.8
20260507175115 47 39 3.0 6.0 0.00 0.12 0.12 87 1015.7
20260507174817 47 27 2.0 5.0 0.00 0.12 0.12 87 1015.8
20260507174516 47 36 2.0 4.0 0.00 0.12 0.12 87 1015.7
20260507174215 47 43 1.0 3.0 0.00 0.12 0.12 86 1015.7
20260507173916 47 43 1.0 3.0 0.00 0.12 0.12 86 1015.7
20260507173736 47 35 2.0 4.0 0.00 0.12 0.12 86 1015.8
20260507173316 47 36 4.0 8.0 0.00 0.12 0.12 86 1015.7
20260507173018 48 28 4.0 9.0 0.00 0.12 0.12 86 1015.7
20260507172716 48 28 2.0 6.0 0.00 0.12 0.12 86 1015.7
20260507172415 48 41 1.0 5.0 0.00 0.12 0.12 86 1015.7
20260507172116 48 37 2.0 7.0 0.00 0.12 0.12 86 1015.6
20260507171818 48 37 2.0 5.0 0.00 0.12 0.12 86 1015.6
20260507171515 48 36 3.0 5.0 0.00 0.12 0.12 86 1015.5
20260507171216 48 51 2.0 5.0 0.00 0.12 0.12 85 1015.5
20260507170916 48 36 3.0 7.0 0.00 0.12 0.12 86 1015.5
20260507170615 48 40 4.0 8.0 0.00 0.12 0.12 86 1015.5
20260507170316 48 38 3.0 5.0 0.00 0.12 0.12 85 1015.5
20260507170016 48 44 3.0 7.0 0.00 0.12 0.12 86 1015.5
20260507165716 48 31 4.0 11.0 0.00 0.12 0.12 85 1015.6
20260507165456 48 28 3.0 7.0 0.00 0.12 0.12 86 1015.5
20260507165116 48 52 3.0 9.0 0.00 0.12 0.12 86 1015.5
20260507164815 48 22 3.0 7.0 0.00 0.12 0.12 86 1015.5
20260507164515 48 25 4.0 8.0 0.00 0.12 0.12 85 1015.5
20260507164216 48 40 3.0 8.0 0.00 0.12 0.12 86 1015.4
20260507163915 48 34 4.0 8.0 0.00 0.12 0.12 86 1015.4
20260507163615 48 20 4.0 7.0 0.00 0.12 0.12 86 1015.3
20260507163316 48 29 5.0 9.0 0.00 0.12 0.12 86 1015.3
20260507163019 48 30 4.0 8.0 0.00 0.12 0.12 86 1015.3
20260507162716 48 37 5.0 11.0 0.00 0.12 0.12 86 1015.3
20260507162415 48 29 3.0 6.0 0.00 0.12 0.12 87 1015.3
20260507162116 48 35 3.0 9.0 0.00 0.12 0.12 86 1015.4
20260507161816 48 35 3.0 7.0 0.00 0.12 0.12 86 1015.4
20260507161516 48 38 4.0 8.0 0.01 0.12 0.12 86 1015.4
20260507161256 48 44 5.0 8.0 0.01 0.12 0.12 86 1015.3
20260507160916 48 46 5.0 10.0 0.01 0.12 0.12 86 1015.3
20260507160659 48 35 5.0 10.0 0.01 0.12 0.12 86 1015.4
20260507160316 48 52 5.0 8.0 0.01 0.12 0.12 86 1015.4
20260507160016 48 41 5.0 8.0 0.01 0.12 0.12 86 1015.4
20260507155756 48 37 4.0 8.0 0.01 0.12 0.12 86 1015.3
20260507155456 48 34 4.0 9.0 0.01 0.12 0.12 86 1015.3
20260507155156 48 47 4.0 7.0 0.01 0.12 0.12 86 1015.3
20260507154816 48 43 3.0 6.0 0.01 0.12 0.12 87 1015.4
20260507154515 48 45 5.0 9.0 0.01 0.12 0.12 87 1015.4
20260507154216 48 36 4.0 8.0 0.01 0.12 0.12 87 1015.4
20260507153916 48 35 5.0 10.0 0.01 0.12 0.12 86 1015.4
20260507153659 48 55 4.0 10.0 0.01 0.12 0.12 86 1015.4
20260507153356 48 54 5.0 10.0 0.01 0.12 0.12 87 1015.4
20260507153056 48 58 4.0 9.0 0.02 0.12 0.12 87 1015.4
20260507152716 48 41 3.0 8.0 0.02 0.12 0.12 86 1015.3
20260507152415 48 38 4.0 9.0 0.02 0.12 0.12 86 1015.3
20260507152115 48 43 4.0 8.0 0.02 0.12 0.12 86 1015.3
20260507151819 48 47 6.0 11.0 0.02 0.12 0.12 87 1015.2
20260507151516 48 41 6.0 12.0 0.01 0.11 0.11 87 1015.2
20260507151216 48 43 4.0 9.0 0.01 0.11 0.11 87 1015.2
20260507150915 48 46 5.0 9.0 0.01 0.11 0.11 87 1015.2
20260507150616 48 44 2.0 7.0 0.01 0.11 0.11 87 1015.1
20260507150316 48 36 4.0 8.0 0.01 0.11 0.11 87 1015.1
20260507150016 48 41 4.0 9.0 0.02 0.11 0.11 87 1015.0
20260507145716 48 37 4.0 8.0 0.02 0.11 0.11 87 1015.0
20260507145416 48 34 4.0 10.0 0.02 0.11 0.11 87 1015.0
20260507145116 48 43 5.0 10.0 0.02 0.11 0.11 87 1014.9
20260507144816 48 39 3.0 9.0 0.02 0.11 0.11 87 1014.9
20260507144516 48 34 3.0 7.0 0.02 0.11 0.11 87 1014.9
20260507144215 48 39 5.0 9.0 0.02 0.11 0.11 87 1014.9
20260507143917 48 41 5.0 8.0 0.02 0.11 0.11 87 1014.8
20260507143615 48 45 4.0 8.0 0.02 0.11 0.11 87 1014.9
20260507143316 48 46 5.0 10.0 0.02 0.11 0.11 87 1014.9
20260507143016 48 44 7.0 12.0 0.01 0.10 0.10 87 1014.8
20260507142719 48 43 5.0 11.0 0.01 0.10 0.10 87 1014.8
20260507142416 48 47 6.0 11.0 0.01 0.10 0.10 87 1014.8
20260507142115 48 34 6.0 11.0 0.01 0.10 0.10 87 1014.8
20260507141819 48 44 5.0 10.0 0.01 0.10 0.10 87 1014.8
20260507141556 48 37 5.0 9.0 0.01 0.10 0.10 87 1014.7
20260507141216 48 34 6.0 13.0 0.01 0.10 0.10 87 1014.7
20260507140916 48 47 5.0 12.0 0.02 0.10 0.10 88 1014.7
20260507140616 48 27 5.0 14.0 0.02 0.10 0.10 88 1014.7
20260507140316 47 48 2.0 8.0 0.02 0.10 0.10 88 1014.7
20260507140015 47 38 5.0 10.0 0.01 0.09 0.09 88 1014.6
20260507135716 47 32 6.0 10.0 0.01 0.09 0.09 88 1014.6
20260507135416 47 29 5.0 11.0 0.01 0.09 0.09 88 1014.6
20260507135116 47 41 6.0 12.0 0.01 0.09 0.09 88 1014.7
20260507134856 47 39 6.0 14.0 0.02 0.09 0.09 88 1014.6
20260507134516 47 33 5.0 10.0 0.02 0.09 0.09 88 1014.6
20260507134336 47 26 6.0 12.0 0.02 0.09 0.09 88 1014.5
20260507133918 47 30 6.0 12.0 0.02 0.09 0.09 88 1014.5
20260507133656 47 23 4.0 9.0 0.02 0.09 0.09 88 1014.4
20260507133316 47 20 5.0 13.0 0.02 0.09 0.09 88 1014.4
20260507133056 47 33 3.0 7.0 0.03 0.09 0.09 89 1014.4
20260507132839 47 34 5.0 13.0 0.03 0.09 0.09 89 1014.4
20260507132415 47 30 5.0 8.0 0.04 0.09 0.09 89 1014.3
20260507132156 47 30 7.0 14.0 0.04 0.09 0.09 89 1014.4
20260507131818 47 36 3.0 8.0 0.05 0.09 0.09 89 1014.4
20260507131516 47 32 4.0 9.0 0.05 0.09 0.09 89 1014.4
20260507131215 47 37 5.0 9.0 0.06 0.09 0.09 89 1014.4
20260507130916 47 21 5.0 10.0 0.05 0.09 0.09 89 1014.4
20260507130616 47 10 5.0 12.0 0.05 0.09 0.09 89 1014.4
20260507130316 47 11 3.0 8.0 0.05 0.09 0.09 89 1014.4
20260507130015 47 16 4.0 9.0 0.06 0.09 0.09 89 1014.3
20260507125755 47 15 7.0 12.0 0.06 0.09 0.09 89 1014.3
20260507125419 47 21 3.0 7.0 0.06 0.09 0.09 89 1014.4
20260507125115 47 22 5.0 10.0 0.06 0.09 0.09 89 1014.4
20260507124816 47 17 5.0 8.0 0.06 0.08 0.08 89 1014.4
20260507124516 47 22 5.0 9.0 0.06 0.08 0.08 89 1014.3
20260507124339 46 12 5.0 9.0 0.06 0.08 0.08 89 1014.3
20260507123916 46 14 5.0 9.0 0.06 0.08 0.08 89 1014.2
20260507123615 46 20 5.0 11.0 0.06 0.07 0.07 88 1014.2
20260507123316 46 20 6.0 12.0 0.06 0.07 0.07 88 1014.2
20260507123015 46 12 6.0 12.0 0.06 0.06 0.06 88 1014.1
20260507122716 46 20 5.0 12.0 0.06 0.06 0.06 88 1014.0
20260507122619 46 13 4.0 8.0 0.05 0.06 0.06 88 1014.0
20260507122116 47 25 5.0 12.0 0.05 0.06 0.06 88 1013.9
20260507121816 47 15 4.0 7.0 0.04 0.05 0.05 88 1013.9
20260507121516 47 24 3.0 9.0 0.05 0.05 0.05 88 1013.9
20260507121216 47 17 6.0 12.0 0.04 0.04 0.04 88 1013.8
20260507120916 47 15 3.0 12.0 0.04 0.04 0.04 88 1013.8
20260507120659 47 24 4.0 9.0 0.04 0.04 0.04 88 1013.7
20260507120316 47 26 4.0 8.0 0.04 0.04 0.04 88 1013.7
20260507120016 47 29 5.0 10.0 0.03 0.03 0.03 88 1013.7
20260507115716 47 15 3.0 6.0 0.03 0.03 0.03 87 1013.7
20260507115415 47 19 5.0 10.0 0.03 0.03 0.03 87 1013.6
20260507115159 47 25 5.0 11.0 0.03 0.03 0.03 87 1013.7
20260507114815 47 33 4.0 8.0 0.02 0.02 0.02 87 1013.6
20260507114556 47 36 4.0 9.0 0.02 0.02 0.02 87 1013.6
20260507114216 47 19 4.0 9.0 0.02 0.02 0.02 86 1013.6
20260507113919 47 35 5.0 8.0 0.02 0.02 0.02 86 1013.7
20260507113616 47 32 5.0 10.0 0.02 0.02 0.02 86 1013.6
20260507113315 47 26 3.0 7.0 0.01 0.01 0.01 86 1013.6
20260507113016 47 35 3.0 9.0 0.01 0.01 0.01 86 1013.6
20260507112838 47 33 3.0 6.0 0.01 0.01 0.01 86 1013.6
20260507112416 47 41 4.0 9.0 0.01 0.01 0.01 85 1013.6
20260507112116 47 28 4.0 10.0 0.01 0.01 0.01 85 1013.6
20260507111816 47 32 6.0 12.0 0.01 0.01 0.01 85 1013.6
20260507111556 48 32 6.0 12.0 0.00 0.00 0.00 85 1013.6
20260507111215 48 39 3.0 7.0 0.00 0.00 0.00 85 1013.5
20260507110916 47 34 3.0 6.0 0.00 0.00 0.00 85 1013.6
20260507110615 47 33 3.0 9.0 0.00 0.00 0.00 85 1013.6
20260507110435 47 26 5.0 9.0 0.00 0.00 0.00 85 1013.6
20260507110015 47 30 6.0 10.0 0.00 0.00 0.00 85 1013.6
20260507105836 47 33 5.0 10.0 0.00 0.00 0.00 85 1013.6
20260507105459 47 24 5.0 10.0 0.00 0.00 0.00 85 1013.6
20260507105115 47 33 6.0 11.0 0.00 0.00 0.00 85 1013.6
20260507104816 47 36 5.0 9.0 0.00 0.00 0.00 85 1013.6
20260507104515 47 29 5.0 10.0 0.00 0.00 0.00 85 1013.6
20260507104219 47 30 3.0 7.0 0.00 0.00 0.00 85 1013.6
20260507103916 47 22 3.0 7.0 0.00 0.00 0.00 85 1013.6
20260507103616 47 34 4.0 7.0 0.00 0.00 0.00 85 1013.6
20260507103356 47 34 4.0 10.0 0.00 0.00 0.00 85 1013.6
20260507103055 47 20 3.0 6.0 0.00 0.00 0.00 85 1013.5
20260507102756 47 30 4.0 9.0 0.00 0.00 0.00 85 1013.5
20260507102415 47 24 5.0 9.0 0.00 0.00 0.00 84 1013.5
20260507102116 47 29 4.0 9.0 0.00 0.00 0.00 84 1013.4
20260507101818 47 22 4.0 7.0 0.00 0.00 0.00 84 1013.4
20260507101517 47 19 5.0 9.0 0.00 0.00 0.00 84 1013.4
20260507101256 47 21 4.0 10.0 0.00 0.00 0.00 84 1013.3
20260507100915 48 19 4.0 9.0 0.00 0.00 0.00 84 1013.3
20260507100619 48 19 4.0 7.0 0.00 0.00 0.00 83 1013.3
20260507100315 48 29 3.0 7.0 0.00 0.00 0.00 83 1013.3
20260507100016 48 32 3.0 8.0 0.00 0.00 0.00 82 1013.2
20260507095756 48 49 4.0 9.0 0.00 0.00 0.00 82 1013.1
20260507095459 48 47 5.0 10.0 0.00 0.00 0.00 82 1013.1
20260507095116 48 70 4.0 11.0 0.00 0.00 0.00 82 1013.1
20260507094816 48 45 4.0 8.0 0.00 0.00 0.00 82 1013.0
20260507094516 48 30 5.0 10.0 0.00 0.00 0.00 82 1013.0
20260507094215 47 34 5.0 12.0 0.00 0.00 0.00 82 1013.0
20260507093916 48 49 8.0 12.0 0.00 0.00 0.00 82 1013.0
20260507093615 48 49 6.0 11.0 0.00 0.00 0.00 83 1012.9
20260507093356 48 54 5.0 10.0 0.00 0.00 0.00 83 1012.8
20260507093019 48 49 3.0 7.0 0.00 0.00 0.00 83 1012.8
20260507092756 47 51 4.0 9.0 0.00 0.00 0.00 83 1012.7
20260507092416 47 35 6.0 11.0 0.00 0.00 0.00 83 1012.7
20260507092115 47 50 6.0 10.0 0.00 0.00 0.00 83 1012.7
20260507091856 47 38 6.0 11.0 0.00 0.00 0.00 83 1012.6
20260507091516 47 46 5.0 12.0 0.00 0.00 0.00 84 1012.6
20260507091216 47 38 4.0 9.0 0.00 0.00 0.00 84 1012.6
20260507090916 47 33 5.0 11.0 0.00 0.00 0.00 84 1012.5
20260507090656 47 44 6.0 10.0 0.00 0.00 0.00 84 1012.5
20260507090356 47 27 4.0 9.0 0.00 0.00 0.00 84 1012.5
20260507090015 47 31 5.0 10.0 0.00 0.00 0.00 83 1012.4
20260507085756 47 41 4.0 10.0 0.00 0.00 0.00 83 1012.4
20260507085415 47 46 6.0 11.0 0.00 0.00 0.00 83 1012.4
20260507085116 47 50 5.0 9.0 0.00 0.00 0.00 83 1012.4
20260507084816 47 57 4.0 11.0 0.00 0.00 0.00 84 1012.3
20260507084516 47 34 3.0 10.0 0.00 0.00 0.00 84 1012.3
20260507084215 47 33 5.0 12.0 0.00 0.00 0.00 84 1012.2
20260507083915 47 44 5.0 9.0 0.00 0.00 0.00 84 1012.2
20260507083616 47 36 5.0 10.0 0.00 0.00 0.00 84 1012.2
20260507083359 47 36 6.0 13.0 0.00 0.00 0.00 84 1012.2
20260507083056 47 33 5.0 13.0 0.00 0.00 0.00 83 1012.2
20260507082756 47 31 6.0 13.0 0.00 0.00 0.00 83 1012.1
20260507082459 47 38 5.0 9.0 0.00 0.01 0.00 83 1012.1
20260507082116 47 41 6.0 12.0 0.00 0.01 0.00 83 1012.0
20260507081815 47 33 6.0 11.0 0.00 0.01 0.00 83 1012.0
20260507081516 47 45 6.0 11.0 0.00 0.01 0.00 83 1012.0
20260507081256 47 31 6.0 16.0 0.00 0.01 0.00 84 1011.9
20260507080916 47 50 8.0 13.0 0.00 0.01 0.00 84 1011.8
20260507080656 46 48 7.0 12.0 0.00 0.01 0.00 84 1011.9
20260507080319 46 48 7.0 11.0 0.00 0.01 0.00 84 1011.8
20260507080016 46 47 7.0 13.0 0.00 0.01 0.00 85 1011.8
20260507075715 46 41 6.0 10.0 0.00 0.02 0.00 85 1011.8
20260507075419 46 38 3.0 11.0 0.00 0.02 0.00 85 1011.8
20260507075116 46 36 6.0 10.0 0.00 0.02 0.00 85 1011.8
20260507074816 46 22 5.0 10.0 0.00 0.02 0.00 85 1011.7
20260507074516 46 42 5.0 11.0 0.00 0.02 0.00 85 1011.6
20260507074256 46 41 6.0 11.0 0.00 0.02 0.00 85 1011.6
20260507073956 46 39 6.0 12.0 0.00 0.02 0.00 85 1011.6
20260507073655 46 40 5.0 11.0 0.00 0.02 0.00 86 1011.6
20260507073316 46 35 6.0 10.0 0.00 0.02 0.00 86 1011.6
20260507073016 46 37 6.0 10.0 0.00 0.02 0.00 86 1011.5
20260507072716 46 40 5.0 9.0 0.00 0.02 0.00 86 1011.5
20260507072416 46 20 5.0 13.0 0.00 0.02 0.00 86 1011.4
20260507072159 46 27 5.0 12.0 0.00 0.02 0.00 86 1011.3
20260507071816 46 23 5.0 10.0 0.00 0.02 0.00 86 1011.3
20260507071515 46 35 6.0 10.0 0.00 0.02 0.00 86 1011.3
20260507071216 46 27 5.0 11.0 0.00 0.02 0.00 86 1011.3
20260507070915 46 27 6.0 12.0 0.00 0.02 0.00 86 1011.2
20260507070616 46 28 5.0 10.0 0.00 0.02 0.00 87 1011.2
20260507070316 46 26 6.0 13.0 0.00 0.02 0.00 87 1011.2
20260507070016 46 32 7.0 12.0 0.00 0.02 0.00 87 1011.2
20260507065716 46 41 6.0 12.0 0.00 0.02 0.00 87 1011.1
20260507065415 46 40 6.0 12.0 0.00 0.02 0.00 88 1011.1
20260507065116 46 20 6.0 12.0 0.00 0.02 0.00 87 1011.1
20260507064815 46 25 5.0 10.0 0.00 0.02 0.00 88 1011.1
20260507064516 46 30 8.0 15.0 0.00 0.02 0.00 88 1011.1
20260507064256 46 28 6.0 14.0 0.00 0.02 0.00 88 1011.1
20260507063916 46 30 7.0 12.0 0.00 0.02 0.00 88 1011.0
20260507063656 46 32 7.0 16.0 0.00 0.02 0.00 88 1011.0
20260507063315 46 35 6.0 12.0 0.00 0.02 0.00 88 1011.0
20260507063016 45 37 7.0 13.0 0.00 0.02 0.00 88 1010.9
20260507062716 45 37 6.0 15.0 0.00 0.02 0.00 89 1010.8
20260507062416 45 26 6.0 14.0 0.00 0.02 0.00 88 1010.8
20260507062116 45 21 8.0 13.0 0.00 0.02 0.00 89 1010.9
20260507061936 45 31 4.0 11.0 0.00 0.02 0.00 89 1010.8
20260507061516 45 26 4.0 10.0 0.00 0.02 0.00 89 1010.8
20260507061338 45 21 6.0 11.0 0.00 0.02 0.00 89 1010.7
20260507060916 45 28 6.0 13.0 0.00 0.02 0.00 89 1010.7
20260507060615 45 29 6.0 12.0 0.00 0.02 0.00 89 1010.7
20260507060316 45 37 6.0 10.0 0.00 0.02 0.00 89 1010.7
20260507060016 45 24 4.0 10.0 0.00 0.02 0.00 89 1010.7
20260507055756 45 22 5.0 12.0 0.00 0.02 0.00 89 1010.6
20260507055416 45 31 4.0 10.0 0.00 0.02 0.00 89 1010.6
20260507055116 45 28 5.0 11.0 0.00 0.02 0.00 89 1010.6
20260507054816 45 29 6.0 11.0 0.00 0.02 0.00 88 1010.5
20260507054515 45 18 6.0 10.0 0.00 0.02 0.00 88 1010.5
20260507054336 45 17 6.0 11.0 0.00 0.02 0.00 88 1010.5
20260507053916 45 17 7.0 12.0 0.00 0.02 0.00 88 1010.4
20260507053616 45 24 5.0 9.0 0.00 0.02 0.00 88 1010.4
20260507053316 45 22 5.0 12.0 0.00 0.03 0.00 88 1010.4
20260507053016 45 26 5.0 9.0 0.00 0.03 0.00 88 1010.3
20260507052716 45 23 6.0 12.0 0.00 0.03 0.00 88 1010.3
20260507052458 45 23 6.0 10.0 0.00 0.03 0.00 88 1010.3
20260507052116 45 14 4.0 9.0 0.00 0.04 0.00 88 1010.2
20260507051816 45 18 4.0 8.0 0.00 0.04 0.00 88 1010.2
20260507051517 45 25 6.0 15.0 0.00 0.04 0.00 88 1010.2
20260507051256 45 36 5.0 10.0 0.00 0.04 0.00 88 1010.2
20260507050916 45 28 5.0 10.0 0.00 0.04 0.00 88 1010.1
20260507050616 45 21 4.0 9.0 0.00 0.05 0.00 88 1010.1
20260507050315 45 31 3.0 9.0 0.00 0.05 0.00 88 1010.1
20260507050016 45 34 5.0 10.0 0.00 0.06 0.00 88 1010.1
20260507045716 45 35 5.0 11.0 0.00 0.06 0.00 88 1010.1
20260507045416 45 35 4.0 9.0 0.00 0.06 0.00 88 1010.1
20260507045159 45 32 4.0 12.0 0.00 0.06 0.00 88 1010.0
20260507044815 45 36 4.0 10.0 0.00 0.07 0.00 88 1010.0
20260507044516 45 31 4.0 7.0 0.00 0.07 0.00 88 1009.9
20260507044215 45 32 4.0 9.0 0.00 0.08 0.00 88 1009.9
20260507043916 45 37 4.0 8.0 0.00 0.08 0.00 88 1009.8
20260507043618 45 29 6.0 11.0 0.00 0.09 0.00 88 1009.8
20260507043316 45 29 6.0 13.0 0.00 0.09 0.00 88 1009.7
20260507043019 45 31 3.0 8.0 0.00 0.10 0.00 88 1009.7
20260507042756 45 33 3.0 7.0 0.00 0.11 0.00 88 1009.7
20260507042418 45 22 2.0 6.0 0.00 0.12 0.00 88 1009.6
20260507042115 45 30 4.0 8.0 0.00 0.12 0.00 87 1009.6
20260507041816 45 34 5.0 11.0 0.00 0.12 0.00 88 1009.6
20260507041516 45 17 2.0 5.0 0.00 0.12 0.00 87 1009.6
20260507041216 45 13 3.0 7.0 0.00 0.13 0.00 87 1009.5
20260507040916 45 42 4.0 8.0 0.00 0.13 0.00 87 1009.5
20260507040656 45 24 4.0 7.0 0.00 0.13 0.00 87 1009.6
20260507040316 45 15 5.0 9.0 0.00 0.13 0.00 87 1009.5
20260507040135 45 30 3.0 7.0 0.00 0.13 0.00 87 1009.4
20260507035716 45 25 4.0 10.0 0.00 0.13 0.00 87 1009.4
20260507035456 45 19 5.0 9.0 0.00 0.13 0.00 87 1009.3
20260507035116 45 33 4.0 8.0 0.00 0.13 0.00 87 1009.3
20260507034816 45 19 5.0 11.0 0.00 0.13 0.00 87 1009.3
20260507034516 45 19 4.0 12.0 0.00 0.13 0.00 87 1009.4
20260507034216 45 14 6.0 12.0 0.00 0.13 0.00 87 1009.4
20260507033915 45 26 3.0 7.0 0.00 0.13 0.00 87 1009.4
20260507033616 45 38 4.0 10.0 0.00 0.13 0.00 87 1009.4
20260507033359 45 32 4.0 11.0 0.00 0.13 0.00 87 1009.3
20260507033016 45 39 5.0 10.0 0.00 0.13 0.00 87 1009.3
20260507032716 45 37 3.0 7.0 0.00 0.13 0.00 87 1009.3
20260507032416 45 41 5.0 9.0 0.00 0.13 0.00 87 1009.4
20260507032116 45 32 5.0 9.0 0.00 0.13 0.00 87 1009.4
20260507031815 45 24 3.0 10.0 0.00 0.13 0.00 87 1009.4
20260507031516 45 44 4.0 8.0 0.00 0.13 0.00 87 1009.4
20260507031259 45 47 3.0 5.0 0.00 0.13 0.00 87 1009.3
20260507030956 45 41 4.0 8.0 0.00 0.13 0.00 87 1009.3
20260507030616 45 33 4.0 10.0 0.00 0.13 0.00 87 1009.4
20260507030316 45 16 3.0 9.0 0.00 0.13 0.00 87 1009.4
20260507030019 45 32 4.0 8.0 0.00 0.13 0.00 87 1009.4
20260507025715 45 21 4.0 9.0 0.00 0.13 0.00 87 1009.4
20260507025416 45 23 5.0 10.0 0.00 0.13 0.00 87 1009.3
20260507025116 45 29 4.0 7.0 0.00 0.13 0.00 87 1009.3
20260507024819 45 27 3.0 7.0 0.00 0.13 0.00 87 1009.3
20260507024515 45 33 4.0 7.0 0.00 0.13 0.00 87 1009.4
20260507024216 45 22 5.0 8.0 0.00 0.13 0.00 87 1009.4
20260507023916 45 11 4.0 7.0 0.00 0.14 0.00 87 1009.4
20260507023615 45 20 3.0 9.0 0.00 0.14 0.00 87 1009.3
20260507023316 45 17 5.0 10.0 0.00 0.14 0.00 87 1009.3
20260507023016 45 20 4.0 8.0 0.00 0.15 0.00 87 1009.4
20260507022718 45 21 3.0 8.0 0.00 0.16 0.00 87 1009.3
20260507022415 45 16 4.0 7.0 0.00 0.16 0.00 87 1009.4
20260507022116 45 18 3.0 9.0 0.00 0.16 0.00 87 1009.3
20260507021816 45 17 3.0 6.0 0.00 0.17 0.00 87 1009.3
20260507021515 45 12 4.0 7.0 0.00 0.17 0.00 87 1009.3
20260507021219 45 12 4.0 7.0 0.00 0.19 0.00 87 1009.2
20260507020916 45 10 4.0 9.0 0.00 0.20 0.00 87 1009.3
20260507020616 45 10 4.0 10.0 0.00 0.20 0.00 87 1009.2
20260507020331 45 6 4.0 8.0 0.00 0.22 0.00 87 1009.2
20260507020016 45 19 4.0 7.0 0.00 0.23 0.00 87 1009.2
20260507015716 45 14 5.0 10.0 0.00 0.24 0.00 87 1009.1
20260507015416 45 25 5.0 9.0 0.00 0.25 0.00 87 1009.1
20260507015116 45 20 3.0 9.0 0.00 0.26 0.00 87 1009.2
20260507014816 45 15 4.0 9.0 0.00 0.28 0.00 87 1009.2
20260507014516 45 13 4.0 8.0 0.00 0.29 0.00 87 1009.2
20260507014215 45 10 4.0 9.0 0.00 0.30 0.00 87 1009.2
20260507013956 45 15 4.0 7.0 0.00 0.31 0.00 87 1009.1
20260507013616 45 28 5.0 11.0 0.00 0.32 0.00 87 1009.1
20260507013316 45 19 5.0 10.0 0.00 0.33 0.00 87 1009.0
20260507013016 45 30 4.0 8.0 0.00 0.34 0.00 87 1009.0
20260507012716 45 14 5.0 10.0 0.00 0.34 0.00 87 1008.9
20260507012419 45 25 4.0 9.0 0.00 0.35 0.00 87 1008.9
20260507012115 45 18 6.0 13.0 0.00 0.35 0.00 87 1008.8
20260507011816 45 26 6.0 13.0 0.00 0.37 0.00 87 1008.7
20260507011556 45 30 4.0 8.0 0.00 0.39 0.00 87 1008.7
20260507010916 45 34 4.0 7.0 0.00 0.41 0.00 87 1008.7
20260507010619 45 14 4.0 9.0 0.00 0.43 0.00 87 1008.7
20260507010316 45 24 5.0 11.0 0.00 0.45 0.00 87 1008.6
20260507010016 45 7 3.0 6.0 0.00 0.46 0.00 87 1008.6
20260507005716 45 29 5.0 10.0 0.00 0.46 0.00 87 1008.5
20260507005428 46 23 4.0 16.0 0.00 0.46 0.00 87 1008.4
20260507005116 46 18 4.0 8.0 0.00 0.47 0.00 87 1008.4
20260507004816 46 29 3.0 6.0 0.00 0.47 0.00 87 1008.4
20260507004516 46 35 4.0 9.0 0.00 0.47 0.00 87 1008.5
20260507004216 46 15 4.0 8.0 0.00 0.47 0.00 87 1008.6
20260507003956 46 18 4.0 9.0 0.00 0.47 0.00 87 1008.6
20260507003616 46 27 4.0 8.0 0.00 0.47 0.00 88 1008.6
20260507003316 46 30 4.0 10.0 0.00 0.47 0.00 88 1008.6
20260507003015 46 30 3.0 8.0 0.00 0.47 0.00 88 1008.5
20260507002716 45 0 1.0 6.0 0.00 0.47 0.00 88 1008.4
20260507002416 46 21 5.0 10.0 0.00 0.47 0.00 88 1008.3
20260507002116 46 29 6.0 11.0 0.00 0.47 0.00 88 1008.3
20260507001815 46 28 5.0 9.0 0.00 0.48 0.00 88 1008.4
20260507001516 46 33 4.0 8.0 0.00 0.48 0.00 88 1008.5
20260507001216 46 45 4.0 9.0 0.00 0.49 0.00 88 1008.6
20260507000919 46 28 3.0 7.0 0.00 0.49 0.00 88 1008.6
20260507000615 46 26 6.0 12.0 0.00 0.49 0.00 88 1008.5
20260507000316 46 29 4.0 10.0 0.00 0.50 0.00 88 1008.6
20260507000056 46 25 3.0 10.0 0.00 0.50 0.00 88 1008.5
20260506235719 46 25 6.0 11.0 0.00 0.50 0.00 88 1008.4
20260506235416 46 13 5.0 11.0 0.00 0.52 0.00 88 1008.4
20260506235156 46 17 6.0 11.0 0.00 0.54 0.00 88 1008.4
20260506234816 46 13 5.0 13.0 0.00 0.54 0.00 88 1008.4
20260506234516 46 12 7.0 14.0 0.00 0.56 0.00 88 1008.5
20260506234216 46 6 9.0 14.0 0.00 0.57 0.00 88 1008.4
20260506233916 46 7 7.0 14.0 0.00 0.58 0.00 87 1008.5
20260506233615 47 3 5.0 12.0 0.00 0.60 0.00 88 1008.5
20260506233359 47 15 5.0 10.0 0.00 0.60 0.00 87 1008.5
20260506233016 47 20 5.0 9.0 0.00 0.61 0.00 87 1008.5
20260506232716 47 11 7.0 14.0 0.00 0.61 0.00 87 1008.4